TRANSIT 18 DEB, 35416

Orbit data source: Space-Track

TRANSIT 18 DEB, 35416 is space debris in LEO originally from a launch on Sat, 02 Mar 1968 UTC launched from the Air Force Western Test Range (AFWTR). Debris objects in space refer to the collection of defunct objects orbiting the Earth. Examples of debris include non-operational satellites, rocket bodies, and fragments generated from explosions, collisions, or faulty payload assembly.

Loading next visibility...
Identifier
35416, 1968-012F
Orbit
LEO
Country
Flag of USUS
Related business
Manufacturer
Unknown
Mission
Spacecraft
Bus & Motor
Unknown
Mass
Unknown
Launch date (UTC)
1968-03-02 (58 years ago)
Launch vehicle
Unknown
Launch site
Air Force Western Test Range (AFWTR)
Object type
Payload
Rocket body
Debris
Shape & HBR
Unknown
Radar Cross Section
Medium (>0.1 m² and <1 m²)

Expand to show TLE details & history
Last TLE update: 12 hours ago

TLE from 12 hours ago
0 TRANSIT 18 DEB
1 35416U 68012F   25243.08396935  .00001111  00000-0  14938-2 0  9996
2 35416  90.0177 272.7971 0066750  21.8357  38.7401 13.58441211815142
Epoch: 2025-08-31T02:00Z
TLE epoch observation values (Epoch: 2025-08-31T02:00:54.951Z)
Latitude
61.14684°
Longitude
-96.97282°
Altitude
1,013.388 km
Speed
7.37 km/s
True Right ascension
18h 11m 03s
True Declination
61° 00' 23"
Sunlit
Object was in daylight at epoch
Visualization orbit readout
Latitude
Unknown
Longitude
Unknown
Altitude
Unknown
Speed
Unknown
Apparent Right ascension
Unknown
Apparent Declination
Unknown
Sunlit
N/A
Visualization observer readout
Local Sidereal Time
05:14:20
Azimuth
Unknown
Elevation
Unknown
Doppler factor
Unknown
Orbital elements
Apogee altitude
1,087.905 km
Perigee altitude
988.894 km
Semi-major axis
7,416.537 km
Eccentricity
0.00668
Inclination
90.0177°
RAAN
272.7971°
Arg. of periapsis
21.8357°
True anomaly
39.22189°
Mean anomaly
38.7401°
Eccentric anomaly
38.98068°
Mean motion
3.39814 °/min
Orbital period
105.94 mins
BSTAR
0.0014938
Loading maneuver chart data...
Computing Atmospheric mass density...
Loading historical data...
Loading historical data...
Loading historical data...
Loading historical data...
Loading historical data...
Loading historical data...
Loading historical data...

Documentation

Showing up to 5 results
|